Dades meteomassalio
Diari Summary for Agost 14, 2017 Units:  English    Metric   Both
« Previous Day
Next Day »
Diari Semanal Mensual Anual Personalitzat
  Maxima: Minima: Mijana:
Temperatura: TemperatureC °F 14.8 °F 25.2 °F
Rosada: DewpointC °F 11.1 °F 13.7 °F
Humitat: Humidity % 29 % 52 %
Velocitat del vent: WindSpeedKMH mph 0.0 mph 8.5 mph
Racha vent: WindSpeedGustKMH mph - -
Vent:- - ESE
Pressio: PressurehPa in 1013.4 in -
Pluja: 0.0 in    
Historical Graphs
 
 
Tabular Data for Agost 14, 2017
Time Temperature Dew Point Pressure Wind Wind Speed Wind Gust Humidity Rainfall Rate (Hourly) solar Conditions
TemperatureC °F DewpointC °F PressurehPa in Calm     Humidity % HourlyPrecipMM in SolarRadiationWatts/m^2 W/m2 Conditions
00:03 22.8 °F 15.6 °F 1016.1 in Calm     64 % 0.0 in 0.0 W/m2 CLR
00:08 22.8 °F 15.4 °F 1015.8 in Calm     63 % 0.0 in 0.0 W/m2 CLR
00:13 22.7 °F 15.5 °F 1015.8 in Calm     64 % 0.0 in 0.0 W/m2 CLR
00:18 22.4 °F 15.3 °F 1015.8 in Calm     64 % 0.0 in 0.0 W/m2 CLR
00:23 22.3 °F 15.4 °F 1015.8 in East 1.9 mph 1.9 mph 65 % 0.0 in 0.0 W/m2 CLR
00:28 22.2 °F 15.5 °F 1015.8 in Calm     66 % 0.0 in 0.0 W/m2 CLR
00:33 22.0 °F 15.6 °F 1015.8 in Calm     67 % 0.0 in 0.0 W/m2 CLR
00:39 22.0 °F 15.6 °F 1015.8 in Calm     67 % 0.0 in 0.0 W/m2 CLR
00:44 21.9 °F 15.2 °F 1015.8 in Calm     66 % 0.0 in 0.0 W/m2 CLR
00:49 21.7 °F 15.3 °F 1015.8 in Calm     67 % 0.0 in 0.0 W/m2 CLR
00:54 21.6 °F 15.4 °F 1015.8 in Calm     68 % 0.0 in 0.0 W/m2 CLR
00:59 21.4 °F 15.5 °F 1016.1 in Calm     69 % 0.0 in 0.0 W/m2 CLR
01:04 21.6 °F 15.6 °F 1015.8 in Calm     69 % 0.0 in 0.0 W/m2 CLR
01:09 21.7 °F 15.6 °F 1015.8 in SE 4.8 mph 4.8 mph 68 % 0.0 in 0.0 W/m2 CLR
01:14 21.8 °F 15.7 °F 1015.8 in Calm     68 % 0.0 in 0.0 W/m2 CLR
01:19 21.8 °F 15.6 °F 1015.8 in Calm     68 % 0.0 in 0.0 W/m2 CLR
01:24 21.7 °F 15.8 °F 1016.1 in ESE 6.4 mph 6.4 mph 69 % 0.0 in 0.0 W/m2 CLR
01:29 21.7 °F 15.7 °F 1015.8 in East 5.6 mph 5.6 mph 69 % 0.0 in 0.0 W/m2 CLR
01:34 21.7 °F 15.7 °F 1015.8 in Calm     69 % 0.0 in 0.0 W/m2 CLR
01:39 21.6 °F 15.7 °F 1016.1 in Calm     69 % 0.0 in 0.0 W/m2 CLR
01:44 21.5 °F 15.8 °F 1016.1 in Calm     70 % 0.0 in 0.0 W/m2 CLR
01:49 21.4 °F 15.7 °F 1016.1 in Calm     70 % 0.0 in 0.0 W/m2 CLR
01:54 21.4 °F 15.7 °F 1016.1 in Calm     70 % 0.0 in 0.0 W/m2 CLR
01:59 21.3 °F 15.6 °F 1016.1 in Calm     70 % 0.0 in 0.0 W/m2 CLR
02:04 21.2 °F 15.8 °F 1016.1 in Calm     71 % 0.0 in 0.0 W/m2 CLR
02:09 21.2 °F 15.9 °F 1016.1 in Calm     72 % 0.0 in 0.0 W/m2 CLR
02:14 21.2 °F 15.9 °F 1016.1 in ESE 5.6 mph   72 % 0.0 in 0.0 W/m2 CLR
02:19 21.2 °F 15.9 °F 1016.1 in Calm     72 % 0.0 in 0.0 W/m2 CLR
02:24 21.1 °F 15.7 °F 1016.1 in Calm     71 % 0.0 in 0.0 W/m2 CLR
02:29 20.9 °F 15.3 °F 1016.1 in Calm     70 % 0.0 in 0.0 W/m2 CLR
02:34 20.7 °F 14.8 °F 1016.1 in Calm     69 % 0.0 in 0.0 W/m2 CLR
02:39 20.5 °F 14.6 °F 1016.1 in Calm     69 % 0.0 in 0.0 W/m2 CLR
02:44 20.3 °F 14.6 °F 1015.8 in Calm     70 % 0.0 in 0.0 W/m2 CLR
02:49 20.2 °F 14.9 °F 1016.1 in Calm     72 % 0.0 in 0.0 W/m2 CLR
02:54 20.1 °F 15.3 °F 1016.1 in Calm     74 % 0.0 in 0.0 W/m2 CLR
02:59 20.1 °F 15.3 °F 1016.1 in Calm     74 % 0.0 in 0.0 W/m2 CLR
03:04 20.1 °F 15.1 °F 1016.1 in Calm     73 % 0.0 in 0.0 W/m2 CLR
03:09 20.1 °F 15.1 °F 1015.8 in Calm     73 % 0.0 in 0.0 W/m2 CLR
03:14 19.9 °F 14.9 °F 1015.8 in Calm     73 % 0.0 in 0.0 W/m2 CLR
03:19 19.7 °F 14.7 °F 1015.8 in Calm     73 % 0.0 in 0.0 W/m2 CLR
03:24 19.6 °F 14.8 °F 1015.8 in Calm     74 % 0.0 in 0.0 W/m2 CLR
03:29 19.5 °F 14.7 °F 1015.8 in Calm     74 % 0.0 in 0.0 W/m2 CLR
03:34 19.4 °F 14.6 °F 1015.8 in Calm     74 % 0.0 in 0.0 W/m2 CLR
03:39 19.3 °F 14.5 °F 1015.8 in Calm     74 % 0.0 in 0.0 W/m2 CLR
03:44 19.1 °F 14.4 °F 1016.1 in Calm     74 % 0.0 in 0.0 W/m2 CLR
03:49 18.9 °F 14.2 °F 1016.1 in Calm     74 % 0.0 in 0.0 W/m2 CLR
03:54 18.7 °F 14.2 °F 1016.1 in Calm     75 % 0.0 in 0.0 W/m2 CLR
03:59 18.6 °F 14.1 °F 1016.1 in Calm     75 % 0.0 in 0.0 W/m2 CLR
04:04 18.4 °F 13.7 °F 1015.8 in Calm     74 % 0.0 in 0.0 W/m2 CLR
04:09 18.2 °F 13.9 °F 1015.8 in Calm     76 % 0.0 in 0.0 W/m2 CLR
04:14 18.1 °F 14.0 °F 1015.8 in Calm     77 % 0.0 in 0.0 W/m2 CLR
04:19 18.0 °F 13.9 °F 1015.8 in Calm     77 % 0.0 in 0.0 W/m2 CLR
04:24 17.8 °F 13.7 °F 1015.8 in Calm     77 % 0.0 in 0.0 W/m2 CLR
04:29 17.7 °F 13.4 °F 1015.8 in Calm     76 % 0.0 in 0.0 W/m2 CLR
04:34 17.5 °F 13.4 °F 1015.8 in Calm     77 % 0.0 in 0.0 W/m2 CLR
04:39 17.4 °F 13.5 °F 1015.8 in Calm     78 % 0.0 in 0.0 W/m2 CLR
04:45 17.3 °F 13.4 °F 1015.8 in Calm     78 % 0.0 in 0.0 W/m2 CLR
04:50 17.2 °F 13.3 °F 1015.8 in Calm     78 % 0.0 in 0.0 W/m2 CLR
04:55 17.1 °F 13.2 °F 1015.8 in Calm     78 % 0.0 in 0.0 W/m2 CLR
05:00 17.0 °F 13.3 °F 1015.8 in Calm     79 % 0.0 in 0.0 W/m2 CLR
05:05 16.9 °F 13.4 °F 1015.8 in Calm     80 % 0.0 in 0.0 W/m2 CLR
05:10 16.8 °F 13.3 °F 1015.8 in Calm     80 % 0.0 in 0.0 W/m2 CLR
05:15 16.8 °F 13.5 °F 1015.8 in Calm     81 % 0.0 in 0.0 W/m2 CLR
05:20 16.8 °F 13.5 °F 1015.8 in Calm     81 % 0.0 in 0.0 W/m2 CLR
05:25 16.7 °F 13.2 °F 1015.8 in Calm     80 % 0.0 in 0.0 W/m2 CLR
05:30 16.6 °F 13.1 °F 1015.8 in Calm     80 % 0.0 in 0.0 W/m2 CLR
05:35 16.5 °F 13.2 °F 1015.8 in Calm     81 % 0.0 in 0.0 W/m2 CLR
05:40 16.4 °F 13.2 °F 1015.8 in Calm     81 % 0.0 in 0.0 W/m2 CLR
05:45 16.3 °F 13.0 °F 1015.8 in Calm     81 % 0.0 in 0.0 W/m2 CLR
05:50 16.1 °F 12.7 °F 1015.8 in Calm     80 % 0.0 in 0.0 W/m2 CLR
05:55 16.1 °F 12.8 °F 1015.8 in Calm     81 % 0.0 in 0.0 W/m2 CLR
06:00 15.9 °F 12.9 °F 1015.8 in Calm     82 % 0.0 in 0.0 W/m2 CLR
06:05 15.9 °F 12.7 °F 1015.8 in Calm     81 % 0.0 in 0.0 W/m2 CLR
06:10 15.8 °F 12.6 °F 1015.8 in Calm     81 % 0.0 in 0.0 W/m2 CLR
06:15 15.8 °F 12.5 °F 1015.8 in Calm     81 % 0.0 in 0.0 W/m2 CLR
06:20 15.7 °F 12.7 °F 1015.8 in Calm     82 % 0.0 in 0.0 W/m2 CLR
06:25 15.6 °F 12.6 °F 1015.8 in Calm     82 % 0.0 in 0.0 W/m2 CLR
06:30 15.5 °F 12.4 °F 1015.8 in Calm     82 % 0.0 in 0.0 W/m2 CLR
06:35 15.4 °F 12.5 °F 1015.8 in Calm     83 % 0.0 in 0.0 W/m2 CLR
06:40 15.4 °F 12.3 °F 1016.1 in Calm     82 % 0.0 in 0.0 W/m2 CLR
06:45 15.4 °F 12.5 °F 1016.1 in Calm     83 % 0.0 in 0.0 W/m2 CLR
06:50 15.3 °F 12.3 °F 1016.1 in Calm     82 % 0.0 in 0.0 W/m2 CLR
06:55 15.2 °F 12.2 °F 1016.1 in Calm     82 % 0.0 in 0.0 W/m2 CLR
07:00 15.2 °F 12.3 °F 1016.1 in Calm     83 % 0.0 in 0.0 W/m2 OVC
07:05 15.1 °F 12.2 °F 1016.1 in Calm     83 % 0.0 in 0.0 W/m2 OVC
07:10 15.1 °F 12.2 °F 1016.1 in Calm     83 % 0.0 in 5.0 W/m2 OVC
07:15 15.0 °F 12.1 °F 1016.1 in Calm     83 % 0.0 in 7.0 W/m2 BKN
07:20 14.9 °F 12.0 °F 1016.1 in Calm     83 % 0.0 in 11.0 W/m2 BKN
07:25 14.9 °F 12.0 °F 1016.1 in Calm     83 % 0.0 in 14.0 W/m2 BKN
07:30 14.8 °F 11.9 °F 1016.1 in Calm     83 % 0.0 in 16.0 W/m2 BKN
07:35 14.9 °F 12.1 °F 1016.1 in Calm     83 % 0.0 in 19.0 W/m2 BKN
07:40 15.0 °F 12.1 °F 1016.1 in Calm     83 % 0.0 in 25.0 W/m2 BKN
07:45 15.2 °F 12.1 °F 1016.1 in Calm     82 % 0.0 in 33.0 W/m2 BKN
07:50 15.3 °F 12.3 °F 1016.1 in Calm     82 % 0.0 in 42.0 W/m2 BKN
07:55 15.4 °F 12.2 °F 1016.1 in Calm     81 % 0.0 in 46.0 W/m2 SCT
08:00 15.7 °F 12.4 °F 1016.5 in Calm     81 % 0.0 in 56.0 W/m2 SCT
08:05 16.0 °F 12.6 °F 1016.5 in Calm     80 % 0.0 in 81.0 W/m2 FEW
08:10 16.3 °F 12.6 °F 1016.5 in Calm     79 % 0.0 in 97.0 W/m2 FEW
08:15 16.6 °F 12.8 °F 1016.5 in Calm     78 % 0.0 in 111.0 W/m2 CLR
08:20 16.8 °F 12.8 °F 1016.5 in Calm     77 % 0.0 in 128.0 W/m2 CLR
08:25 17.0 °F 12.7 °F 1016.5 in Calm     76 % 0.0 in 144.0 W/m2 CLR
08:30 17.2 °F 12.9 °F 1016.5 in Calm     76 % 0.0 in 165.0 W/m2 CLR
08:35 17.6 °F 13.3 °F 1016.5 in Calm     76 % 0.0 in 183.0 W/m2 CLR
08:40 18.0 °F 13.7 °F 1016.5 in Calm     76 % 0.0 in 200.0 W/m2 CLR
08:45 18.4 °F 13.7 °F 1016.5 in Calm     74 % 0.0 in 218.0 W/m2 CLR
08:50 18.6 °F 14.1 °F 1016.5 in Calm     75 % 0.0 in 232.0 W/m2 CLR
08:55 18.9 °F 14.4 °F 1016.5 in Calm     75 % 0.0 in 246.0 W/m2 CLR
09:00 19.3 °F 14.4 °F 1016.5 in Calm     73 % 0.0 in 264.0 W/m2 CLR
09:02 19.5 °F 14.3 °F 1016.5 in Calm     72 % 0.0 in 271.0 W/m2 CLR
09:07 20.0 °F 14.1 °F 1016.5 in Calm     69 % 0.0 in 288.0 W/m2 CLR
09:12 20.5 °F 14.2 °F 1016.5 in Calm     67 % 0.0 in 302.0 W/m2 CLR
09:17 20.9 °F 14.1 °F 1016.5 in Calm     65 % 0.0 in 318.0 W/m2 CLR
09:22 21.2 °F 14.1 °F 1016.8 in Calm     64 % 0.0 in 334.0 W/m2 CLR
09:27 21.7 °F 14.1 °F 1016.8 in Calm     62 % 0.0 in 53.0 W/m2 CLR
09:32 22.1 °F 14.2 °F 1016.8 in Calm     61 % 0.0 in 336.0 W/m2 CLR
09:37 22.3 °F 14.2 °F 1016.5 in Calm     60 % 0.0 in 381.0 W/m2 CLR
09:42 22.5 °F 14.1 °F 1016.5 in Calm     59 % 0.0 in 397.0 W/m2 CLR
09:47 22.8 °F 13.3 °F 1016.5 in Calm     55 % 0.0 in 411.0 W/m2 CLR
09:52 23.3 °F 12.9 °F 1016.5 in Calm     52 % 0.0 in 425.0 W/m2 CLR
09:57 23.8 °F 13.1 °F 1016.5 in Calm     51 % 0.0 in 445.0 W/m2 CLR
10:02 24.2 °F 12.8 °F 1016.5 in Calm     49 % 0.0 in 461.0 W/m2 CLR
10:07 24.3 °F 12.6 °F 1016.5 in Calm     48 % 0.0 in 478.0 W/m2 CLR
10:12 24.6 °F 12.2 °F 1016.5 in Calm     46 % 0.0 in 490.0 W/m2 CLR
10:17 25.1 °F 12.0 °F 1016.5 in Calm     44 % 0.0 in 506.0 W/m2 CLR
10:22 25.7 °F 13.2 °F 1016.5 in Calm     46 % 0.0 in 519.0 W/m2 CLR
10:27 26.2 °F 14.3 °F 1016.1 in Calm     48 % 0.0 in 533.0 W/m2 CLR
10:32 26.5 °F 14.6 °F 1016.1 in NNE 5.6 mph 5.6 mph 48 % 0.0 in 548.0 W/m2 CLR
10:37 26.7 °F 14.8 °F 1016.1 in ENE 5.6 mph 5.6 mph 48 % 0.0 in 561.0 W/m2 CLR
10:42 26.9 °F 15.0 °F 1016.1 in NE 9.3 mph 9.3 mph 48 % 0.0 in 577.0 W/m2 CLR
10:47 27.0 °F 15.1 °F 1016.1 in NE 4.8 mph 4.8 mph 48 % 0.0 in 587.0 W/m2 CLR
10:52 27.1 °F 15.2 °F 1016.1 in NE 11.1 mph 11.1 mph 48 % 0.0 in 601.0 W/m2 CLR
10:57 27.4 °F 15.1 °F 1016.1 in NNE 9.7 mph 9.7 mph 47 % 0.0 in 612.0 W/m2 CLR
11:02 27.6 °F 14.6 °F 1016.1 in NE 9.3 mph 9.3 mph 45 % 0.0 in 624.0 W/m2 CLR
11:07 27.7 °F 14.3 °F 1016.1 in ENE 11.1 mph 11.1 mph 44 % 0.0 in 636.0 W/m2 CLR
11:10 27.8 °F 14.4 °F 1016.1 in ENE 6.4 mph 6.4 mph 44 % 0.0 in 643.0 W/m2 CLR
11:15 27.9 °F 14.5 °F 1016.1 in NE 9.3 mph 9.3 mph 44 % 0.0 in 657.0 W/m2 CLR
11:20 28.3 °F 14.5 °F 1016.1 in NE 7.4 mph 7.4 mph 43 % 0.0 in 664.0 W/m2 CLR
11:25 28.6 °F 13.3 °F 1016.1 in NNE 3.7 mph 3.7 mph 39 % 0.0 in 675.0 W/m2 CLR
11:30 28.8 °F 13.1 °F 1016.1 in ENE 5.6 mph 5.6 mph 38 % 0.0 in 682.0 W/m2 CLR
11:35 29.1 °F 12.9 °F 1016.1 in East 9.3 mph 9.3 mph 37 % 0.0 in 698.0 W/m2 CLR
11:40 29.2 °F 13.8 °F 1016.1 in Calm     39 % 0.0 in 705.0 W/m2 CLR
11:45 29.4 °F 14.4 °F 1016.1 in NE 7.4 mph 7.4 mph 40 % 0.0 in 721.0 W/m2 CLR
11:50 29.6 °F 14.2 °F 1016.1 in NE 14.8 mph 14.8 mph 39 % 0.0 in 733.0 W/m2 CLR
11:55 29.7 °F 13.5 °F 1016.1 in ENE 5.6 mph 5.6 mph 37 % 0.0 in 745.0 W/m2 CLR
12:00 29.9 °F 14.1 °F 1015.8 in NE 8.0 mph 8.0 mph 38 % 0.0 in 754.0 W/m2 CLR
12:05 30.1 °F 13.8 °F 1016.1 in NNE 7.4 mph 7.4 mph 37 % 0.0 in 761.0 W/m2 CLR
12:10 30.4 °F 13.7 °F 1015.8 in Calm     36 % 0.0 in 775.0 W/m2 CLR
12:15 30.7 °F 13.5 °F 1015.8 in NE 9.3 mph 9.3 mph 35 % 0.0 in 786.0 W/m2 CLR
12:20 30.8 °F 13.6 °F 1015.8 in NE 11.1 mph 11.1 mph 35 % 0.0 in 791.0 W/m2 CLR
12:25 30.9 °F 14.1 °F 1015.8 in Calm     36 % 0.0 in 798.0 W/m2 CLR
12:30 31.4 °F 13.2 °F 1015.8 in ENE 8.0 mph 8.0 mph 33 % 0.0 in 809.0 W/m2 CLR
12:35 31.6 °F 12.4 °F 1015.8 in ESE 11.1 mph 11.1 mph 31 % 0.0 in 819.0 W/m2 CLR
12:40 31.5 °F 12.3 °F 1015.8 in Calm     31 % 0.0 in 824.0 W/m2 CLR
12:45 31.6 °F 11.9 °F 1015.8 in ENE 5.6 mph 5.6 mph 30 % 0.0 in 831.0 W/m2 CLR
12:50 31.9 °F 12.2 °F 1015.8 in ESE 6.4 mph 6.4 mph 30 % 0.0 in 837.0 W/m2 CLR
12:55 32.0 °F 12.3 °F 1015.5 in SE 14.5 mph 14.5 mph 30 % 0.0 in 844.0 W/m2 CLR
13:00 31.8 °F 12.1 °F 1015.5 in East 16.1 mph 16.1 mph 30 % 0.0 in 847.0 W/m2 CLR
13:05 32.1 °F 12.8 °F 1015.5 in SSE 1.6 mph 1.6 mph 31 % 0.0 in 854.0 W/m2 CLR
13:10 32.3 °F 13.5 °F 1015.5 in East 9.3 mph 9.3 mph 32 % 0.0 in 858.0 W/m2 CLR
13:15 32.4 °F 13.6 °F 1015.1 in ENE 9.7 mph 9.7 mph 32 % 0.0 in 863.0 W/m2 CLR
13:20 32.5 °F 14.6 °F 1015.1 in ENE 16.1 mph 16.1 mph 34 % 0.0 in 861.0 W/m2 CLR
13:25 32.6 °F 15.2 °F 1015.1 in ESE 13.0 mph 13.0 mph 35 % 0.0 in 865.0 W/m2 CLR
13:30 32.8 °F 15.3 °F 1015.1 in East 13.0 mph 13.0 mph 35 % 0.0 in 867.0 W/m2 CLR
13:35 32.9 °F 15.4 °F 1015.1 in ENE 5.6 mph 5.6 mph 35 % 0.0 in 868.0 W/m2 CLR
13:40 33.1 °F 15.6 °F 1014.8 in East 13.0 mph 13.0 mph 35 % 0.0 in 874.0 W/m2 CLR
13:45 33.1 °F 15.2 °F 1014.8 in ESE 9.3 mph 9.3 mph 34 % 0.0 in 874.0 W/m2 CLR
13:50 33.2 °F 15.2 °F 1014.8 in NE 13.0 mph 13.0 mph 34 % 0.0 in 872.0 W/m2 CLR
13:55 33.4 °F 15.4 °F 1014.4 in East 13.0 mph 13.0 mph 34 % 0.0 in 879.0 W/m2 CLR
14:00 33.4 °F 15.4 °F 1014.4 in ENE 22.2 mph 22.2 mph 34 % 0.0 in 875.0 W/m2 CLR
14:05 33.4 °F 14.9 °F 1014.4 in ENE 7.4 mph 7.4 mph 33 % 0.0 in 881.0 W/m2 CLR
14:10 33.6 °F 13.1 °F 1014.4 in East 16.7 mph 16.7 mph 29 % 0.0 in 877.0 W/m2 CLR
14:15 33.6 °F 13.7 °F 1014.4 in East 14.8 mph 14.8 mph 30 % 0.0 in 881.0 W/m2 CLR
14:20 33.5 °F 13.0 °F 1014.4 in East 16.7 mph 16.7 mph 29 % 0.0 in 882.0 W/m2 CLR
14:25 34.0 °F 13.4 °F 1014.1 in SE 18.5 mph 18.5 mph 29 % 0.0 in 877.0 W/m2 CLR
14:27 34.1 °F 13.6 °F 1014.1 in ESE 18.5 mph 18.5 mph 29 % 0.0 in 874.0 W/m2 CLR
14:32 34.1 °F 13.6 °F 1014.4 in SE 18.5 mph 18.5 mph 29 % 0.0 in 874.0 W/m2 CLR
14:37 33.8 °F 13.8 °F 1014.1 in SE 20.4 mph 20.4 mph 30 % 0.0 in 872.0 W/m2 CLR
14:42 33.6 °F 14.6 °F 1014.1 in SE 27.8 mph 27.8 mph 32 % 0.0 in 865.0 W/m2 CLR
14:47 33.7 °F 14.7 °F 1014.1 in SE 18.5 mph 18.5 mph 32 % 0.0 in 865.0 W/m2 CLR
14:52 33.4 °F 14.9 °F 1014.1 in ESE 14.5 mph 14.5 mph 33 % 0.0 in 860.0 W/m2 CLR
14:57 33.3 °F 14.8 °F 1014.1 in East 22.2 mph 22.2 mph 33 % 0.0 in 856.0 W/m2 CLR
15:02 33.4 °F 14.9 °F 1013.8 in ESE 20.4 mph 20.4 mph 33 % 0.0 in 853.0 W/m2 CLR
15:07 33.5 °F 15.5 °F 1013.8 in ESE 25.7 mph 25.7 mph 34 % 0.0 in 844.0 W/m2 CLR
15:12 33.4 °F 15.4 °F 1013.8 in SE 22.2 mph 22.2 mph 34 % 0.0 in 842.0 W/m2 CLR
15:17 33.5 °F 15.5 °F 1013.8 in SE 29.6 mph 29.6 mph 34 % 0.0 in 840.0 W/m2 CLR
15:22 32.9 °F 15.9 °F 1013.8 in SSE 29.6 mph 29.6 mph 36 % 0.0 in 831.0 W/m2 CLR
15:25 32.8 °F 15.8 °F 1013.8 in ESE 24.1 mph 24.1 mph 36 % 0.0 in 830.0 W/m2 CLR
15:30 33.2 °F 15.7 °F 1013.8 in ESE 29.6 mph 29.6 mph 35 % 0.0 in 823.0 W/m2 CLR
15:35 33.3 °F 15.3 °F 1013.4 in East 27.8 mph 27.8 mph 34 % 0.0 in 814.0 W/m2 CLR
15:41 33.2 °F 15.2 °F 1013.4 in SE 29.6 mph 29.6 mph 34 % 0.0 in 805.0 W/m2 CLR
15:46 33.3 °F 15.3 °F 1013.4 in ESE 22.2 mph 22.2 mph 34 % 0.0 in 796.0 W/m2 CLR
15:51 33.4 °F 15.9 °F 1013.4 in SE 18.5 mph 19.0 mph 35 % 0.0 in 788.0 W/m2 CLR
15:56 33.7 °F 15.6 °F 1013.4 in ESE 31.5 mph 31.5 mph 34 % 0.0 in 782.0 W/m2 CLR
16:01 33.4 °F 15.8 °F 1013.4 in ESE 22.2 mph 22.2 mph 35 % 0.0 in 775.0 W/m2 CLR
16:06 33.2 °F 15.2 °F 1013.4 in ESE 33.3 mph 33.3 mph 34 % 0.0 in 765.0 W/m2 CLR
16:11 33.2 °F 15.2 °F 1013.4 in ESE 27.8 mph 27.8 mph 34 % 0.0 in 754.0 W/m2 CLR
16:16 33.2 °F 15.7 °F 1013.4 in ESE 22.2 mph 22.2 mph 35 % 0.0 in 744.0 W/m2 CLR
16:21 33.1 °F 15.2 °F 1013.4 in ESE 27.8 mph 27.8 mph 34 % 0.0 in 735.0 W/m2 CLR
16:26 33.2 °F 15.2 °F 1013.4 in SSE 27.8 mph 27.8 mph 34 % 0.0 in 722.0 W/m2 CLR
16:31 33.4 °F 14.5 °F 1013.4 in SSE 31.5 mph 31.5 mph 32 % 0.0 in 714.0 W/m2 CLR
16:36 33.2 °F 14.8 °F 1013.4 in ESE 31.5 mph 31.5 mph 33 % 0.0 in 703.0 W/m2 CLR
16:41 33.4 °F 15.4 °F 1013.4 in ESE 22.2 mph 22.2 mph 34 % 0.0 in 689.0 W/m2 CLR
16:46 33.3 °F 14.8 °F 1013.4 in SSE 27.8 mph 27.8 mph 33 % 0.0 in 677.0 W/m2 CLR
16:51 33.0 °F 15.1 °F 1013.4 in East 31.5 mph 31.5 mph 34 % 0.0 in 668.0 W/m2 CLR
16:56 32.8 °F 14.9 °F 1013.4 in ESE 24.1 mph 24.1 mph 34 % 0.0 in 650.0 W/m2 CLR
17:01 32.8 °F 14.9 °F 1013.8 in South 22.2 mph 22.8 mph 34 % 0.0 in 640.0 W/m2 CLR
17:06 32.6 °F 14.7 °F 1013.4 in SE 29.6 mph 29.6 mph 34 % 0.0 in 631.0 W/m2 CLR
17:11 32.4 °F 14.9 °F 1013.4 in ESE 25.9 mph 25.9 mph 35 % 0.0 in 619.0 W/m2 CLR
17:16 32.3 °F 14.9 °F 1013.8 in ESE 31.5 mph 31.5 mph 35 % 0.0 in 603.0 W/m2 CLR
17:21 32.4 °F 14.9 °F 1013.8 in SE 29.6 mph 29.6 mph 35 % 0.0 in 591.0 W/m2 CLR
17:26 32.4 °F 14.9 °F 1013.4 in SE 24.1 mph 24.1 mph 35 % 0.0 in 578.0 W/m2 CLR
17:31 32.5 °F 15.1 °F 1013.4 in ESE 18.5 mph 18.5 mph 35 % 0.0 in 564.0 W/m2 CLR
17:36 32.4 °F 15.0 °F 1013.4 in SE 20.4 mph 20.4 mph 35 % 0.0 in 552.0 W/m2 CLR
17:41 32.1 °F 14.7 °F 1013.4 in SE 27.8 mph 27.8 mph 35 % 0.0 in 536.0 W/m2 CLR
17:46 32.2 °F 15.3 °F 1013.4 in ESE 22.5 mph 22.5 mph 36 % 0.0 in 526.0 W/m2 CLR
17:52 32.0 °F 14.6 °F 1013.4 in ESE 27.8 mph 27.8 mph 35 % 0.0 in 510.0 W/m2 CLR
17:57 31.7 °F 14.3 °F 1013.4 in ESE 29.6 mph 29.6 mph 35 % 0.0 in 497.0 W/m2 CLR
18:02 31.7 °F 14.3 °F 1013.4 in ESE 31.5 mph 31.5 mph 35 % 0.0 in 480.0 W/m2 CLR
18:07 31.7 °F 14.3 °F 1013.4 in SE 24.1 mph 24.1 mph 35 % 0.0 in 464.0 W/m2 CLR
18:12 31.8 °F 14.4 °F 1013.4 in ESE 29.0 mph 29.0 mph 35 % 0.0 in 452.0 W/m2 CLR
18:17 31.7 °F 14.3 °F 1013.4 in SE 27.8 mph 27.8 mph 35 % 0.0 in 436.0 W/m2 CLR
18:22 31.5 °F 14.6 °F 1013.4 in SE 14.8 mph 14.8 mph 36 % 0.0 in 418.0 W/m2 CLR
18:27 31.7 °F 14.3 °F 1013.4 in SE 16.7 mph 16.7 mph 35 % 0.0 in 403.0 W/m2 CLR
18:32 31.7 °F 14.4 °F 1013.4 in SE 18.5 mph 18.5 mph 35 % 0.0 in 387.0 W/m2 CLR
18:37 31.7 °F 14.8 °F 1013.4 in SE 25.9 mph 25.9 mph 36 % 0.0 in 369.0 W/m2 CLR
18:42 31.7 °F 14.3 °F 1013.4 in SE 22.2 mph 22.2 mph 35 % 0.0 in 355.0 W/m2 CLR
18:47 31.6 °F 13.8 °F 1013.4 in ESE 25.9 mph 25.9 mph 34 % 0.0 in 336.0 W/m2 CLR
18:52 31.4 °F 14.1 °F 1013.4 in ESE 18.5 mph 18.5 mph 35 % 0.0 in 322.0 W/m2 CLR
18:57 31.4 °F 14.6 °F 1013.4 in SE 29.0 mph 29.0 mph 36 % 0.0 in 306.0 W/m2 CLR
19:02 31.1 °F 14.3 °F 1013.4 in SE 29.6 mph 29.6 mph 36 % 0.0 in 290.0 W/m2 CLR
19:07 30.8 °F 14.1 °F 1013.4 in SE 27.8 mph 27.8 mph 36 % 0.0 in 271.0 W/m2 CLR
19:12 30.8 °F 14.1 °F 1013.4 in SE 27.8 mph 27.8 mph 36 % 0.0 in 255.0 W/m2 CLR
19:17 30.6 °F 13.8 °F 1013.4 in ESE 20.9 mph 20.9 mph 36 % 0.0 in 241.0 W/m2 CLR
19:22 30.7 °F 13.9 °F 1013.4 in SE 22.2 mph 22.2 mph 36 % 0.0 in 223.0 W/m2 CLR
19:27 30.7 °F 13.9 °F 1013.4 in SE 16.7 mph 16.7 mph 36 % 0.0 in 204.0 W/m2 CLR
19:32 30.6 °F 12.9 °F 1013.4 in ESE 25.9 mph 25.9 mph 34 % 0.0 in 190.0 W/m2 CLR
19:37 30.4 °F 12.8 °F 1013.4 in SE 22.2 mph 22.2 mph 34 % 0.0 in 172.0 W/m2 CLR
19:42 30.3 °F 12.7 °F 1013.4 in SE 17.7 mph 17.7 mph 34 % 0.0 in 156.0 W/m2 CLR
19:47 30.2 °F 12.6 °F 1013.4 in SSE 16.7 mph 16.7 mph 34 % 0.0 in 139.0 W/m2 CLR
19:52 30.1 °F 12.5 °F 1013.4 in SE 18.5 mph 18.5 mph 34 % 0.0 in 121.0 W/m2 CLR
19:57 30.0 °F 11.9 °F 1013.4 in SE 14.8 mph 14.8 mph 33 % 0.0 in 105.0 W/m2 CLR
20:02 29.9 °F 11.9 °F 1013.8 in SE 20.4 mph 20.4 mph 33 % 0.0 in 90.0 W/m2 CLR
20:07 29.8 °F 11.8 °F 1013.8 in SE 20.4 mph 20.4 mph 33 % 0.0 in 76.0 W/m2 FEW
20:12 29.7 °F 11.7 °F 1013.8 in ESE 18.5 mph 18.5 mph 33 % 0.0 in 62.0 W/m2 SCT
20:17 29.4 °F 11.9 °F 1013.8 in SE 14.8 mph 14.8 mph 34 % 0.0 in 47.0 W/m2 SCT
20:22 29.2 °F 12.2 °F 1013.8 in SSE 22.2 mph 22.2 mph 35 % 0.0 in 40.0 W/m2 BKN
20:27 29.0 °F 12.4 °F 1013.8 in SE 20.4 mph 20.4 mph 36 % 0.0 in 30.0 W/m2 BKN
20:32 28.8 °F 12.3 °F 1013.8 in South 13.0 mph 13.0 mph 36 % 0.0 in 23.0 W/m2 BKN
20:37 28.7 °F 12.6 °F 1014.1 in SE 19.3 mph 19.3 mph 37 % 0.0 in 18.0 W/m2 BKN
20:42 28.4 °F 12.3 °F 1014.1 in SE 18.5 mph 18.5 mph 37 % 0.0 in 14.0 W/m2 BKN
20:47 28.2 °F 12.6 °F 1014.1 in SSE 18.5 mph 18.5 mph 38 % 0.0 in 11.0 W/m2 BKN
20:52 28.1 °F 12.4 °F 1014.1 in SSE 18.5 mph 18.5 mph 38 % 0.0 in 7.0 W/m2 BKN
20:57 27.9 °F 12.7 °F 1014.1 in SE 13.0 mph 13.0 mph 39 % 0.0 in 0.0 W/m2 OVC
21:02 27.7 °F 12.5 °F 1014.1 in South 14.8 mph 14.8 mph 39 % 0.0 in 0.0 W/m2 CLR
21:07 27.6 °F 12.3 °F 1014.1 in SSE 9.7 mph 9.7 mph 39 % 0.0 in 0.0 W/m2 CLR
21:12 27.4 °F 12.3 °F 1014.1 in SSE 11.1 mph 11.1 mph 39 % 0.0 in 0.0 W/m2 CLR
21:17 27.3 °F 12.1 °F 1014.4 in ESE 6.4 mph 6.4 mph 39 % 0.0 in 0.0 W/m2 CLR
21:22 27.2 °F 12.4 °F 1014.4 in SSE 5.6 mph 5.6 mph 40 % 0.0 in 0.0 W/m2 CLR
21:23 27.1 °F 12.3 °F 1014.4 in ESE 3.2 mph 3.2 mph 40 % 0.0 in 0.0 W/m2 CLR
21:28 26.9 °F 12.2 °F 1014.4 in Calm     40 % 0.0 in 0.0 W/m2 CLR
21:33 26.8 °F 12.4 °F 1014.4 in ESE 5.6 mph 5.6 mph 41 % 0.0 in 0.0 W/m2 CLR
21:38 26.5 °F 12.9 °F 1014.4 in ESE 7.4 mph 7.4 mph 43 % 0.0 in 0.0 W/m2 CLR
21:43 26.2 °F 12.7 °F 1014.8 in ESE 9.7 mph 9.7 mph 43 % 0.0 in 0.0 W/m2 CLR
21:48 26.1 °F 12.9 °F 1014.8 in ESE 11.1 mph 11.1 mph 44 % 0.0 in 0.0 W/m2 CLR
21:53 26.0 °F 12.8 °F 1014.8 in SE 7.4 mph 7.4 mph 44 % 0.0 in 0.0 W/m2 CLR
21:58 25.9 °F 12.7 °F 1014.8 in Calm     44 % 0.0 in 0.0 W/m2 CLR
22:03 25.7 °F 12.6 °F 1015.1 in SSE 5.6 mph 5.6 mph 44 % 0.0 in 0.0 W/m2 CLR
22:08 25.7 °F 12.6 °F 1015.1 in SSE 9.3 mph 9.3 mph 44 % 0.0 in 0.0 W/m2 CLR
22:13 25.8 °F 12.2 °F 1014.8 in SE 8.0 mph 8.0 mph 43 % 0.0 in 0.0 W/m2 CLR
22:18 25.7 °F 12.2 °F 1015.1 in SE 8.0 mph 8.0 mph 43 % 0.0 in 0.0 W/m2 CLR
22:23 25.6 °F 12.1 °F 1015.1 in SE 5.6 mph 5.6 mph 43 % 0.0 in 0.0 W/m2 CLR
22:28 25.6 °F 11.7 °F 1015.1 in SE 5.6 mph 5.6 mph 42 % 0.0 in 0.0 W/m2 CLR
22:33 25.5 °F 12.0 °F 1015.1 in Calm     43 % 0.0 in 0.0 W/m2 CLR
22:38 25.3 °F 11.5 °F 1015.1 in SSE 4.8 mph 4.8 mph 42 % 0.0 in 0.0 W/m2 CLR
22:43 25.3 °F 11.4 °F 1015.1 in Calm     42 % 0.0 in 0.0 W/m2 CLR
22:48 25.2 °F 11.4 °F 1015.1 in SE 5.6 mph 5.6 mph 42 % 0.0 in 0.0 W/m2 CLR
22:53 25.2 °F 11.4 °F 1015.1 in SSE 3.7 mph   42 % 0.0 in 0.0 W/m2 CLR
22:58 25.3 °F 11.1 °F 1015.1 in SE 5.6 mph   41 % 0.0 in 0.0 W/m2 CLR
23:03 25.2 °F 11.4 °F 1015.1 in Calm     42 % 0.0 in 0.0 W/m2 CLR
23:08 25.0 °F 11.6 °F 1015.1 in Calm     43 % 0.0 in 0.0 W/m2 CLR
23:13 24.8 °F 11.7 °F 1015.1 in Calm     44 % 0.0 in 0.0 W/m2 CLR
23:18 24.6 °F 11.6 °F 1015.5 in Calm     44 % 0.0 in 0.0 W/m2 CLR
23:23 24.3 °F 11.3 °F 1015.5 in Calm     44 % 0.0 in 0.0 W/m2 CLR
23:28 23.9 °F 11.6 °F 1015.5 in Calm     46 % 0.0 in 0.0 W/m2 CLR
23:33 23.7 °F 12.0 °F 1015.5 in Calm     48 % 0.0 in 0.0 W/m2 CLR
23:39 23.5 °F 11.8 °F 1015.5 in Calm     48 % 0.0 in 0.0 W/m2 CLR
23:44 23.3 °F 11.7 °F 1015.5 in Calm     48 % 0.0 in 0.0 W/m2 CLR
23:49 23.3 °F 11.9 °F 1015.5 in Calm     49 % 0.0 in 0.0 W/m2 CLR
23:54 23.2 °F 11.9 °F 1015.5 in Calm     49 % 0.0 in 0.0 W/m2 CLR
23:59 23.2 °F 12.4 °F 1015.5 in Calm     51 % 0.0 in 0.0 W/m2 CLR
Lo Temps de Massalio
Compliments of Weather Underground - 1.25 mb